Location: Cumal?
(36.9760°N, 30.5616°E)
Time: 08:30:12
(UTC+00:00)

Daily predictions for brighter satellites

Satellite Brightness Start Highest point End
(mag) Time Altitude Azimuth Time Altitude Azimuth Time Altitude Azimuth
USA 102 4.3 15:39:38 10° SE 15:43:12 57° ENE 15:48:23 10° NNW
USA 32 4.5 15:39:55 10° SSW 15:45:06 68° W 15:50:19 10° N
Cosmos 1328 3.8 15:41:43 10° S 15:45:43 72° E 15:49:43 10° NNE
BREEZE-M DEB (TANK) 3.4 15:44:13 10° SW 15:50:01 63° SE 15:52:40 10° ENE
NOSS 3-2 (A) 4.3 15:47:48 10° SSE 15:52:19 26° ESE 15:57:10 10° NE
CZ-4 R/B 2.0 15:51:03 10° SE 15:54:44 34° ENE 15:58:30 10° N
STARLINK-67 3.0 15:56:15 10° SSW 15:58:37 38° SE 16:00:32 14° ENE
CSL-04 Rocket 4.3 15:55:10 10° SE 16:00:05 34° ENE 16:05:03 10° N
ATLAS CENTAUR R/B 1.2 16:03:44 10° NNW 16:07:33 52° ENE 16:11:08 10° SE
Cosmos 1703 3.9 16:03:44 10° SSW 16:07:38 59° W 16:11:35 10° N
USA 234 3.4 16:06:19 10° ESE 16:12:39 55° NE 16:19:00 10° NW
Meteor 2-12 Rocket 4.4 16:07:37 10° S 16:13:33 62° E 16:19:30 10° NNE
Cosmos 1455 3.1 16:10:43 10° NNW 16:14:23 50° W 16:18:01 10° S
COSMO-SKYMED 1 2.8 16:11:19 10° N 16:15:39 72° WNW 16:19:57 10° SSW
Cosmos 1842 Rocket 3.8 16:11:44 10° N 16:16:03 46° E 16:20:21 10° SSE
DELTA 2 R/B (1) 3.6 16:12:30 10° WNW 16:18:06 85° SSW 16:23:12 13° ESE
Meteor 2-10 Rocket 4.2 16:15:49 10° NNW 16:20:52 57° W 16:25:47 10° S
GPS 2-05 Rocket1 3.0 16:19:20 10° SW 16:21:40 35° SSE 16:22:37 25° ESE
ADEOS Rocket 3.8 16:16:59 10° NNE 16:23:42 44° E 16:30:52 10° S
Ariane Rocket 4.0 16:20:45 10° ESE 16:24:44 24° ENE 16:28:45 10° NNE
Cosmos 2098 4.3 16:22:27 10° S 16:25:27 62° E 16:29:01 10° NNE
Shenzhou-11 Module 2.7 16:26:34 10° NW 16:28:59 29° NNE 16:29:18 28° NNE
Cosmos 1624 Rocket 4.4 16:24:18 10° S 16:29:16 42° ESE 16:33:27 14° NE
Cosmos 1356 Rocket 3.4 16:26:02 10° N 16:30:09 82° W 16:34:18 10° S
USA 116 3.1 16:29:35 10° N 16:32:41 84° WNW 16:35:53 10° SSW
USA 238 DEB 3.6 16:26:26 10° SSW 16:32:58 66° ESE 16:38:55 14° NE
USA 238 3.6 16:26:34 10° SSW 16:33:05 65° ESE 16:38:59 14° NE
CZ-2D R/B 3.3 16:29:31 10° SSE 16:33:14 54° ENE 16:37:01 10° N
Cosmos 1934 Rocket 4.3 16:30:51 10° SSE 16:36:21 37° E 16:41:50 10° NNE
SL-16 R/B 3.2 16:31:52 10° NNW 16:37:18 48° WSW 16:42:42 10° S
Akebono 4.1 16:35:13 10° NNW 16:38:21 75° ENE 16:39:05 40° SSE
Cosmos 2227 4.2 16:32:53 10° SSW 16:38:38 88° WNW 16:44:23 10° NNE
Cosmos 614 Rocket 4.4 16:34:28 10° N 16:39:22 40° ENE 16:44:09 10° SE
Cosmos 44 Rocket 4.2 16:37:11 10° SW 16:41:49 46° NW 16:46:23 10° NNE
Cosmos 2221 2.4 16:38:23 10° N 16:42:41 70° E 16:46:58 10° SSE
Cosmos 1869 3.9 16:39:30 10° N 16:48:22 - SSE 16:42:33 34° NE
Cosmos 1076 Rocket 3.5 16:39:14 10° S 16:43:25 56° E 16:47:16 12° NNE
Cosmos 1000 Rocket 4.5 16:37:29 10° N 16:43:38 59° E 16:49:48 10° SSE
Cosmos 2239 Rocket 4.5 16:37:35 10° S 16:43:49 66° E 16:50:06 10° NNE
Cosmos 2056 Rocket 3.5 16:40:14 10° S 16:45:21 59° ESE 16:49:18 18° NNE
Cosmos 1939 Rocket 2.7 16:41:54 10° SSE 16:45:48 81° ENE 16:49:48 10° N
Cosmos 1437 2.5 16:43:00 10° S 16:45:47 59° ESE 16:45:47 59° ESE
Cosmos 2263 Rocket 2.1 16:43:26 10° SSW 16:48:59 86° ESE 16:54:02 13° NNE
Cosmos 1603 3.7 16:45:07 10° NNW 16:50:41 57° ENE 16:56:11 10° SE
NOAA 11 4.4 16:52:30 10° S 16:57:58 71° WSW 17:03:28 10° NNW
Cosmos 1535 Rocket 4.5 16:54:13 10° S 17:00:24 62° E 17:06:42 10° NNE
OAO 2 Rocket 3.4 17:00:21 10° WSW 17:05:12 62° S 17:06:11 50° ESE
Cosmos 2058 2.8 17:01:47 10° S 17:05:54 90° NW 17:07:39 34° N
Cosmos 1140 Rocket 3.9 17:03:15 10° N 17:07:30 43° NE 17:07:30 43° NE
Atlas Centaur 2 2.9 17:05:17 10° WSW 17:09:10 32° S 17:10:41 26° SSE
OAO 3 Rocket 3.1 17:05:46 10° WSW 17:10:22 64° S 17:10:51 59° SE
YAOGAN 1 4.1 17:08:32 10° SSW 17:12:31 36° W 17:16:30 10° NNW
ATLAS 3B R/B 3.0 17:11:23 10° S 17:17:12 41° ESE 17:17:12 41° ESE
Cosmos 1943 3.0 17:13:33 10° NNW 17:19:13 76° ENE 17:21:02 45° SE
H-2A R/B 3.9 17:24:05 17° N 17:24:05 17° N 17:25:15 10° N
Cosmos 1892 4.4 17:18:45 10° S 17:20:21 24° S 17:20:21 24° S
NOSS 3-2 (C) 3.2 17:20:10 10° SSW 17:25:47 88° ESE 17:27:11 55° NE
CZ-4 R/B 4.4 17:27:15 10° SW 17:29:50 16° W 17:32:27 10° NW
CENTAUR R/B 2.2 17:27:27 10° SSW 17:33:07 76° ESE 17:33:27 74° E
Atlas 2A Centaur Rocket 4.2 17:34:12 10° SW 17:36:26 15° SSW 17:36:26 15° SSW
NOSS 3-2 (A) 4.2 17:37:17 10° WSW 17:42:41 44° NW 17:45:13 30° N
FALCON 9 R/B 2.8 17:26:59 10° WSW 17:43:11 66° S 17:43:55 62° SE
Cosmos 407 Rocket 4.3 17:43:05 10° NNW 17:48:09 50° WSW 17:50:00 34° SSW
USA 234 4.4 17:50:44 15° S 17:55:43 38° SW 18:01:45 10° WNW
Cosmos 1605 Rocket 4.3 17:56:41 10° SSW 18:02:56 64° W 18:04:20 51° NNW
Ariane Rocket 4.4 17:58:50 10° SSW 18:03:27 36° W 18:08:08 10° NNW
BREEZE-M DEB (TANK) 4.4 17:51:11 10° WNW 18:10:50 60° N 18:10:50 60° N
